#timestamp,LO_Frequency,Hit,StdDev 
1609495215.0,286047001.2,N
1609495215.9,286047001.2,N
1609495235.8,286046999.7,N
1609495255.6,286047000.6,N
1609495275.4,286047000.2,N
1609495295.3,286047002.6,N
1609495315.1,286047000.0,N
1609495335.9,286047000.8,N
1609495355.7,286047001.2,N
1609495375.5,286046999.9,N
1609495395.4,286047002.8,N
1609495415.2,286047001.5,N
1609495435.0,286047002.1,N
1609495435.9,286047002.1,N
1609495455.8,286047002.0,N
1609495475.6,286047000.6,N
1609495495.5,286047000.0,N
1609495515.3,286047001.6,N
1609495535.1,286047002.5,N
1609495555.9,286047004.3,Y
1609495575.7,286047003.7,P
1609495595.6,286047004.1,N
1609495615.4,286047001.9,N
1609495635.2,286047004.0,Y
1609495655.1,286047001.2,P
1609495656.0,286047001.2,N
1609495675.8,286046999.5,N
1609495695.6,286046996.6,Y
1609495715.5,286046996.5,P
1609495735.3,286047013.2,P
1609495755.2,286047016.2,N
1609495775.9,286047011.4,N
1609495795.7,286047010.3,N
1609495815.6,286047006.8,N
1609495835.4,286047005.5,N
1609495855.2,286047001.4,N
1609495875.1,286047001.8,N
1609495876.0,286047001.8,N
1609495895.8,286047002.7,N
1609495915.7,286047000.4,N
1609495935.5,286047001.0,N
1609495955.3,286046999.3,N
1609495975.2,286046997.5,N
1609495995.0,286046997.9,N
1609495995.9,286046997.9,N
1609496015.7,286046997.7,N
1609496035.6,286046997.7,N
1609496055.4,286046997.9,N
1609496075.3,286046996.2,N
1609496095.1,286046996.2,N
1609496096.0,286046996.2,N
1609496115.8,286046993.5,N
1609496135.7,286046993.9,N
1609496155.5,286046996.2,N
1609496175.3,286046994.5,N
1609496195.2,286046992.1,N
1609496215.0,286046992.8,N
1609496215.9,286046992.8,N
1609496235.8,286046992.8,N
1609496255.6,286046990.3,N
1609496275.4,286046993.2,N
1609496295.3,286046992.9,N
1609496315.1,286046993.2,N
1609496335.8,286046990.9,N
1609496355.7,286046988.5,Y
1609496375.5,286046992.2,P
1609496395.4,286046990.3,P
1609496415.2,286046990.0,P
1609496435.0,286046986.9,Y
1609496435.9,286046986.9,P
1609496455.8,286046997.6,N
1609496475.6,286046994.9,N
1609496495.5,286046999.4,N
1609496515.3,286046998.6,N
1609496535.1,286046998.9,N
1609496555.9,286046998.5,N
1609496575.7,286046998.4,N
1609496595.5,286047000.3,N
1609496615.4,286047000.3,N
1609496635.2,286047002.3,N
1609496655.1,286047001.0,N
1609496656.0,286047001.0,N
1609496675.8,286047000.7,N
1609496695.6,286046998.1,N
1609496715.5,286047000.7,N
1609496735.3,286046998.1,N
1609496755.1,286046998.4,N
1609496775.9,286047001.2,N
1609496795.7,286046995.3,N
1609496815.6,286046995.4,N
1609496835.4,286046993.8,N
1609496855.2,286046990.1,N
1609496875.1,286046990.2,N
1609496876.0,286046990.2,N
1609496895.8,286046993.2,N
1609496915.6,286046992.3,N
1609496935.5,286046994.5,N
1609496955.3,286046994.1,N
1609496975.2,286046996.4,N
1609496995.9,286046993.5,N
1609497015.7,286046993.9,N
1609497035.6,286046994.2,N
1609497055.4,286046993.8,N
1609497075.2,286046994.0,N
1609497095.1,286046996.4,N
1609497096.0,286046996.4,N
1609497115.8,286046996.0,N
1609497135.7,286046996.0,N
1609497155.5,286046993.5,N
1609497175.3,286046993.7,N
1609497195.2,286046994.6,N
1609497215.0,286046996.0,N
1609497215.9,286046996.0,N
1609497235.7,286046995.1,N
1609497255.6,286046995.9,N
1609497275.4,286046996.1,N
1609497295.3,286046994.4,N
1609497315.1,286046993.7,N
1609497316.0,286046993.7,Y
1609497335.8,286047000.1,P
1609497355.7,286047002.3,N
1609497375.5,286047001.5,N
1609497395.4,286047002.5,N
1609497415.2,286047001.6,N
1609497435.0,286047003.9,N
1609497435.9,286047003.9,N
1609497455.8,286047001.4,N
1609497475.6,286047004.2,N
1609497495.4,286047003.6,N
1609497515.3,286047004.1,N
1609497535.1,286047001.5,N
1609497555.9,286047004.0,N
1609497575.7,286047001.5,N
1609497595.5,286047001.5,N
1609497615.4,286047001.3,N
1609497635.2,286047000.1,N
1609497655.0,286047001.0,N
1609497655.9,286047001.0,N
1609497675.8,286046999.7,N
1609497695.6,286047002.4,N
1609497715.5,286047001.9,N
1609497735.3,286047001.8,N
1609497755.1,286047002.0,N
1609497775.9,286047002.6,N
1609497795.7,286047004.0,N
1609497815.5,286047004.1,N
1609497835.4,286047005.9,N
1609497855.2,286047007.6,Y
1609497875.1,286047006.0,P
1609497876.0,286047006.0,P
1609497895.8,286047005.7,P
1609497915.7,286047003.5,N
1609497935.5,286047003.9,N
1609497955.3,286047001.6,N
1609497975.2,286047004.1,N
1609497995.9,286047003.1,N
1609498015.7,286047003.0,N
1609498035.6,286047003.7,N
1609498055.4,286047003.1,N
1609498075.3,286047005.3,Y
1609498095.1,286047002.4,P
1609498096.0,286047002.4,P
1609498115.8,286046998.1,N
1609498135.7,286046998.1,N
1609498155.5,286046998.2,N
1609498175.3,286047000.0,N
1609498195.2,286047000.3,N
1609498215.0,286046999.7,N
1609498215.9,286046999.7,N
1609498235.8,286047000.1,N
1609498255.6,286046999.7,N
1609498275.4,286047001.6,N
1609498295.3,286047003.7,N
1609498315.1,286047001.4,N
1609498335.8,286047002.3,N
1609498355.7,286046999.8,N
1609498375.5,286046998.1,N
1609498395.4,286046998.3,N
1609498415.2,286046998.7,N
1609498435.0,286046998.2,N
1609498435.9,286046998.2,N
1609498455.8,286047000.4,N
1609498475.6,286047002.5,N
1609498495.4,286047001.9,N
1609498515.3,286046999.8,N
1609498535.1,286047001.8,N
1609498555.9,286047002.2,N
1609498575.7,286047002.0,N
1609498595.5,286047002.4,N
1609498615.4,286047001.6,N
1609498635.2,286047004.2,N
1609498655.0,286047001.3,N
1609498656.0,286047001.3,N
1609498675.8,286047003.4,N
1609498695.6,286047005.6,Y
1609498715.5,286047003.2,P
1609498735.3,286047004.4,P
1609498755.2,286047001.3,N
1609498775.9,286047001.5,N
1609498795.7,286047001.3,N
